Wind_Speed
11 10 10 11 11 11 11 11 10 10 10 10 10 10 10 10 9 9 7 7 6 6 4 4 4 3 3 2 2 2 1 2 2 3 4 4 4 5 6 7 7 7 8
11 10 10 11 11 11 11 11 11 10 11 10 10 10 10 9 9 9 8 7 7 6 5 4 4 4 3 2 2 1 2 2 2 3 4 5 5 5 6 6 7 8 8
10 10 10 10 11 11 11 11 10 10 10 10 10 10 9 9 9 9 9 8 7 6 5 5 5 4 3 2 2 2 2 2 2 3 4 5 6 6 6 6 7 7 7
10 10 10 10 11 11 11 11 11 10 10 10 10 9 9 9 9 9 9 8 8 7 6 5 5 4 3 3 2 2 2 3 3 3 4 5 6 6 6 7 7 7 7
10 10 10 10 11 11 11 11 10 10 10 10 10 9 9 9 8 8 9 9 8 7 6 6 5 5 4 3 3 2 2 3 3 4 4 6 6 6 6 6 7 7 7
10 10 10 10 10 11 11 11 10 10 10 10 10 10 9 9 8 8 8 8 8 7 6 6 5 5 4 4 3 2 2 3 4 4 5 5 6 6 6 6 7 7 7
9 10 10 10 10 11 11 10 10 10 9 10 10 10 10 9 9 8 8 8 7 7 7 6 6 5 4 3 3 2 3 4 4 4 5 5 6 6 6 6 6 7 7
9 10 10 10 10 10 10 10 9 9 9 9 9 9 10 9 9 8 8 7 7 7 8 7 6 6 4 4 3 3 3 4 5 6 6 6 6 7 6 6 7 7 8
9 9 10 10 10 10 9 9 9 8 8 8 8 9 9 9 9 8 8 7 7 7 7 8 7 6 5 4 4 4 4 5 6 6 6 6 7 7 7 7 8 8 8
9 9 9 9 9 9 9 9 9 8 8 8 7 8 8 9 9 8 8 8 7 7 7 7 7 6 5 4 4 5 5 5 6 6 6 7 8 7 8 8 8 9 9
9 9 9 9 9 9 9 9 9 9 8 8 8 7 8 8 8 8 8 8 8 7 7 7 7 6 5 5 4 4 4 5 6 7 7 7 7 7 7 8 9 9 9
9 9 9 9 9 9 9 9 9 9 9 9 8 8 8 7 8 8 8 8 7 7 7 7 7 6 5 5 5 4 4 4 4 5 6 7 7 7 7 8 8 8 9
8 8 8 8 9 9 9 9 9 9 10 9 8 8 8 7 7 7 7 7 7 7 7 7 7 6 5 5 4 4 3 3 3 4 5 6 7 7 8 8 8 8 8
8 8 8 8 8 9 10 9 9 9 9 9 8 8 8 7 7 7 7 7 7 7 7 7 7 6 5 5 3 3 4 4 3 4 5 6 7 8 8 9 9 9 9
8 8 8 8 8 9 9 9 9 9 9 9 9 8 8 7 7 7 7 7 7 7 7 7 7 5 5 5 4 4 5 5 5 5 6 6 7 8 8 9 9 10 10
8 7 8 8 8 8 8 9 9 9 8 9 9 8 7 7 7 7 7 7 7 7 7 7 7 5 5 5 5 5 6 5 6 6 6 6 7 8 9 9 10 10 10
8 7 7 8 7 8 8 8 8 8 8 8 8 8 7 7 7 7 7 6 7 7 7 7 7 6 5 6 6 6 6 6 6 6 7 8 9 9 9 9 9 10 10
8 8 7 7 8 8 8 8 8 8 8 8 7 7 7 8 8 7 7 6 7 7 7 7 7 7 6 6 7 7 7 7 7 7 8 8 9 8 8 9 9 9 9
9 9 8 8 8 8 8 8 8 8 8 8 7 7 8 8 8 7 7 7 7 7 7 7 7 7 8 8 8 8 7 7 8 8 8 8 8 8 8 8 9 9 10
9 9 10 8 8 8 8 9 9 9 9 9 9 8 8 8 8 8 8 8 8 8 8 8 8 8 9 9 9 9 9 8 8 8 7 7 8 8 8 8 8 9 10
9 10 10 8 8 9 9 9 10 10 11 10 10 9 9 8 8 9 8 8 8 9 9 8 8 9 9 9 9 9 9 9 9 8 8 7 8 8 9 9 9 9 10
10 10 10 8 8 9 10 11 12 10 10 11 10 10 10 9 9 9 8 9 9 9 9 9 9 10 10 9 9 9 9 10 10 10 10 9 9 10 10 10 11 11 11
9 9 9 8 9 10 11 12 11 9 10 10 10 11 10 10 10 9 9 9 10 10 10 10 10 10 10 10 10 10 10 10 11 11 11 10 10 10 10 11 12 12 13
9 9 9 9 10 11 11 11 11 11 10 10 11 12 12 12 11 10 10 10 10 10 10 10 10 10 10 11 11 11 11 11 11 12 12 11 11 11 11 12 13 13 14
10 10 9 10 11 11 11 11 12 12 11 11 12 12 12 12 11 11 11 11 11 11 11 11 11 11 11 11 11 12 12 13 13 12 13 13 13 13 13 13 14 15 15
11 11 11 11 12 13 13 13 12 12 13 12 12 12 12 12 12 12 12 12 12 12 12 12 12 12 12 12 12 12 12 13 14 14 14 14 15 15 14 15 16 17 17
Wind_Direction
25 23 23 24 28 31 33 35 34 31 28 25 23 22 21 19 18 18 13 8 2 358 353 346 341 341 335 325 306 273 238 232 231 225 229 227 216 206 204 207 211 210 210
23 21 21 23 27 30 31 30 30 28 27 26 24 22 21 22 24 25 19 13 7 1 356 353 346 339 333 329 310 276 234 229 225 218 225 220 207 202 203 203 201 202 209
21 18 19 24 27 29 29 29 30 29 25 23 22 21 20 23 26 26 22 17 11 7 3 356 349 343 335 323 306 277 247 239 234 221 218 214 204 201 202 201 197 200 203
18 18 22 25 26 27 28 28 29 29 27 25 23 22 22 24 25 25 22 19 15 11 10 4 356 350 339 329 306 272 249 236 238 219 216 209 204 203 201 201 200 197 196
16 19 23 25 26 27 28 28 31 33 29 27 24 23 23 22 21 23 21 20 16 14 16 8 1 355 342 331 311 276 243 232 236 225 215 207 204 203 203 207 201 195 198
15 19 22 23 24 25 25 26 30 31 31 30 26 24 21 18 16 15 13 16 14 13 13 4 357 350 342 333 315 281 252 243 246 231 218 210 205 206 207 208 204 201 203
16 20 22 24 24 23 24 24 27 28 29 30 28 23 20 17 14 12 9 9 11 10 9 1 355 348 340 335 313 280 263 253 245 240 217 213 211 211 211 212 211 210 214
17 19 22 23 22 22 23 24 25 27 26 26 25 23 19 16 13 11 9 10 13 6 1 357 350 344 338 330 313 291 272 259 251 243 229 219 216 220 221 222 221 219 220
16 16 18 20 20 20 22 24 23 24 22 21 22 22 20 17 15 13 10 13 11 2 358 350 346 349 339 324 317 303 281 267 256 250 234 231 230 232 229 229 229 229 228
13 17 18 19 20 19 20 19 19 21 19 15 13 14 15 13 12 12 12 12 11 5 2 357 351 351 343 327 311 296 283 268 260 250 248 243 235 234 234 236 236 234 233
9 13 15 18 20 20 19 16 15 16 14 11 9 7 8 9 7 7 8 8 8 3 359 357 351 348 342 340 329 306 288 280 265 255 251 244 240 240 243 243 243 242 238
3 8 13 18 18 15 15 15 15 12 9 8 7 4 2 4 5 5 4 2 2 0 359 356 348 346 340 341 337 324 301 300 276 259 253 248 243 245 245 245 246 243 237
355 0 8 11 13 11 12 12 10 9 9 8 6 2 1 0 359 359 357 353 351 352 351 352 350 356 347 336 327 318 307 314 298 274 262 256 248 248 248 250 248 247 246
350 354 358 2 6 6 7 8 6 6 8 10 8 4 2 359 356 351 348 346 344 343 344 345 349 352 350 339 320 307 301 302 291 275 256 259 253 250 249 251 253 251 246
349 353 353 358 1 1 3 4 2 3 5 5 3 359 358 357 351 345 341 339 340 339 340 341 340 342 344 341 331 311 305 301 297 281 273 268 262 259 262 259 256 254 252
340 342 342 346 349 350 355 358 357 358 1 0 359 358 354 350 346 341 338 338 338 335 331 331 335 334 334 332 327 318 302 296 293 278 269 266 263 260 263 259 256 254 250
331 331 331 336 337 338 345 348 350 351 353 352 352 355 354 348 343 341 341 342 341 337 330 327 329 331 330 331 323 313 308 300 291 283 274 270 265 262 260 254 250 248 246
325 321 323 322 326 330 336 334 339 343 344 343 343 346 346 345 341 337 336 330 332 333 332 328 326 328 329 330 326 318 315 307 294 286 278 272 267 264 253 246 244 243 242
324 322 324 328 327 328 328 324 329 330 332 335 333 334 335 332 331 328 322 320 324 328 329 324 322 324 323 322 321 314 313 311 308 297 281 273 270 266 260 253 253 247 244
327 328 329 328 327 328 324 320 319 318 320 322 322 325 326 327 326 323 319 318 319 319 319 319 319 319 317 316 314 309 306 306 307 305 295 285 281 278 275 272 263 254 250
325 330 333 337 328 326 324 320 314 309 311 313 314 323 321 322 320 317 317 317 316 316 317 320 320 320 314 313 312 308 304 304 308 304 295 287 287 288 284 279 270 258 252
316 320 323 321 326 324 322 320 313 301 308 305 303 309 313 313 314 311 309 313 315 315 313 312 317 320 317 314 311 307 301 299 299 299 295 287 285 283 278 276 272 264 254
306 312 316 316 322 322 320 321 314 306 312 313 308 306 310 311 311 308 306 310 314 313 312 314 316 315 315 315 309 303 298 294 294 296 296 291 287 285 278 275 271 267 261
295 300 304 304 316 318 316 318 319 314 309 308 308 306 307 308 307 304 304 307 309 310 310 311 314 313 313 311 307 303 299 301 298 297 298 293 289 286 279 272 271 270 267
288 291 296 303 309 310 313 316 315 316 312 307 306 304 303 305 302 299 296 299 303 303 304 306 310 311 311 310 307 303 300 301 301 300 297 292 288 286 283 277 272 269 266
286 286 292 301 303 304 308 313 309 308 306 306 306 301 298 299 300 298 298 298 300 300 301 302 306 307 306 308 306 304 302 299 295 297 297 294 291 287 284 280 272 270 269
Height
5881 5880 5879 5877 5876 5874 5873 5872 5872 5871 5871 5870 5870 5869 5868 5868 5867 5866 5865 5865 5864 5863 5863 5863 5863 5863 5863 5863 5863 5863 5864 5864 5865 5865 5866 5867 5868 5869 5869 5870 5871 5872 5874
5882 5880 5879 5878 5876 5875 5874 5873 5872 5871 5871 5870 5870 5869 5869 5868 5867 5866 5865 5865 5864 5863 5863 5863 5863 5863 5863 5863 5863 5863 5863 5864 5864 5865 5865 5866 5867 5868 5869 5869 5870 5871 5872
5882 5881 5879 5878 5877 5875 5874 5873 5872 5872 5871 5871 5870 5870 5869 5868 5867 5866 5865 5865 5864 5863 5863 5863 5862 5862 5862 5862 5862 5862 5862 5863 5863 5864 5864 5865 5866 5867 5868 5868 5869 5871 5872
5883 5881 5880 5878 5877 5876 5875 5873 5872 5872 5871 5871 5870 5870 5869 5868 5867 5866 5865 5865 5864 5863 5863 5862 5862 5862 5862 5861 5861 5862 5862 5862 5862 5863 5863 5864 5865 5866 5867 5868 5868 5870 5871
5883 5882 5880 5879 5877 5876 5875 5874 5873 5872 5872 5871 5870 5870 5869 5868 5867 5866 5866 5865 5864 5863 5863 5862 5862 5861 5861 5861 5861 5861 5861 5861 5861 5862 5862 5863 5864 5865 5866 5867 5868 5869 5870
5883 5882 5880 5879 5878 5876 5875 5874 5873 5873 5872 5871 5871 5870 5869 5868 5867 5867 5866 5865 5864 5863 5863 5862 5862 5861 5861 5860 5860 5860 5860 5860 5860 5861 5862 5863 5864 5865 5865 5866 5867 5869 5870
5884 5882 5881 5879 5878 5877 5876 5875 5874 5873 5872 5872 5871 5870 5869 5868 5867 5867 5866 5865 5864 5863 5863 5862 5861 5861 5860 5860 5860 5860 5860 5860 5860 5861 5861 5862 5862 5863 5864 5866 5866 5867 5869
5884 5882 5881 5880 5878 5877 5876 5875 5874 5874 5873 5872 5871 5870 5869 5868 5867 5867 5866 5865 5864 5863 5862 5862 5861 5860 5860 5859 5859 5859 5859 5859 5859 5859 5860 5861 5862 5862 5863 5865 5865 5866 5867
5884 5883 5881 5880 5879 5878 5877 5876 5875 5874 5873 5872 5871 5870 5869 5869 5868 5867 5866 5865 5864 5863 5862 5861 5860 5860 5859 5859 5859 5858 5858 5858 5858 5859 5859 5860 5861 5862 5863 5863 5864 5865 5866
5885 5883 5882 5880 5879 5878 5877 5876 5875 5874 5873 5872 5871 5870 5869 5868 5868 5867 5865 5864 5864 5863 5862 5861 5860 5859 5858 5858 5858 5857 5857 5857 5857 5858 5858 5859 5859 5860 5861 5862 5863 5864 5864
5885 5883 5882 5881 5880 5878 5877 5876 5875 5874 5873 5872 5871 5870 5869 5868 5867 5866 5865 5864 5863 5862 5862 5861 5859 5858 5858 5857 5856 5856 5856 5856 5856 5857 5857 5858 5858 5859 5859 5860 5861 5862 5863
5885 5884 5882 5881 5880 5879 5877 5876 5875 5874 5873 5872 5871 5870 5869 5868 5867 5866 5865 5864 5863 5862 5861 5860 5859 5858 5857 5857 5856 5855 5855 5855 5855 5856 5856 5856 5857 5857 5858 5858 5859 5860 5861
5885 5884 5882 5881 5880 5879 5877 5876 5875 5874 5873 5872 5870 5869 5868 5867 5866 5865 5864 5864 5863 5862 5861 5860 5859 5857 5857 5856 5856 5855 5855 5855 5855 5855 5855 5855 5855 5856 5856 5857 5857 5858 5859
5885 5884 5882 5881 5880 5879 5877 5876 5875 5874 5873 5871 5870 5869 5868 5867 5866 5865 5864 5863 5862 5861 5860 5859 5858 5857 5856 5856 5855 5855 5854 5854 5853 5853 5853 5853 5854 5854 5855 5855 5856 5856 5857
5884 5883 5882 5881 5880 5879 5877 5876 5875 5874 5873 5871 5870 5869 5868 5867 5865 5864 5863 5862 5861 5860 5860 5859 5858 5857 5856 5855 5855 5854 5854 5853 5853 5852 5852 5852 5852 5852 5852 5853 5853 5854 5855
5884 5883 5881 5880 5879 5878 5877 5876 5875 5873 5872 5871 5870 5868 5867 5866 5865 5864 5863 5862 5861 5860 5859 5858 5857 5856 5856 5855 5854 5853 5852 5852 5851 5851 5851 5850 5850 5850 5850 5850 5851 5852 5853
5883 5882 5881 5879 5878 5877 5876 5875 5874 5873 5872 5871 5869 5868 5867 5865 5864 5863 5862 5861 5860 5859 5858 5857 5857 5856 5855 5854 5853 5852 5851 5850 5850 5849 5849 5848 5848 5848 5847 5848 5848 5849 5850
5882 5880 5879 5878 5877 5876 5875 5875 5873 5872 5871 5870 5868 5867 5866 5865 5863 5862 5861 5860 5860 5859 5858 5857 5856 5855 5854 5853 5852 5851 5850 5849 5848 5848 5847 5846 5846 5846 5845 5845 5846 5846 5848
5880 5879 5878 5876 5876 5875 5874 5873 5872 5871 5870 5869 5867 5866 5865 5864 5862 5862 5861 5860 5859 5858 5857 5856 5855 5854 5853 5852 5851 5850 5849 5848 5847 5846 5845 5844 5844 5844 5843 5843 5843 5844 5845
5879 5878 5876 5875 5874 5873 5872 5871 5870 5869 5868 5867 5866 5865 5864 5863 5861 5861 5860 5858 5857 5856 5855 5854 5853 5852 5851 5850 5849 5848 5847 5846 5845 5844 5843 5842 5842 5842 5841 5840 5840 5841 5842
5877 5876 5875 5874 5873 5871 5870 5869 5869 5867 5866 5865 5864 5863 5862 5861 5860 5859 5858 5857 5856 5855 5854 5853 5852 5851 5850 5849 5848 5847 5846 5845 5844 5842 5841 5841 5840 5840 5839 5839 5838 5839 5840
5875 5874 5873 5872 5871 5870 5869 5867 5866 5865 5864 5863 5862 5862 5860 5859 5858 5857 5857 5856 5855 5854 5853 5852 5851 5850 5848 5847 5846 5845 5844 5843 5842 5841 5840 5839 5838 5837 5837 5837 5836 5836 5837
5874 5872 5871 5870 5869 5869 5867 5866 5863 5862 5862 5861 5861 5860 5859 5857 5857 5856 5855 5854 5853 5852 5851 5850 5849 5848 5847 5846 5844 5843 5842 5841 5840 5839 5837 5836 5836 5835 5834 5834 5834 5834 5835
5871 5870 5869 5868 5867 5866 5865 5864 5862 5861 5860 5859 5859 5858 5857 5855 5854 5854 5853 5852 5851 5850 5849 5848 5847 5846 5845 5844 5842 5841 5840 5838 5837 5836 5835 5834 5833 5832 5832 5831 5831 5831 5832
5868 5867 5867 5866 5865 5864 5862 5861 5861 5859 5858 5857 5856 5855 5854 5853 5852 5852 5851 5850 5849 5848 5847 5846 5845 5844 5842 5841 5840 5838 5837 5836 5834 5834 5833 5832 5830 5829 5828 5828 5828 5828 5828
5866 5865 5865 5864 5863 5862 5860 5859 5858 5857 5856 5855 5854 5853 5852 5850 5850 5849 5848 5847 5846 5845 5844 5843 5842 5841 5840 5838 5837 5836 5834 5833 5832 5831 5830 5828 5827 5826 5825 5824 5824 5823 5823